Weather Roundup
Issued by NWS

Home | Current Version | Previous Version | Text Only | Print | Product List | Glossary On
Versions: 1 2 3 4 5 6 7 8 9 10 11 12 13 14 15 16 17 18 19 20 21 22 23 24 25 26 27 28 29 30 31 32 33 34 35 36 37 38 39 40 41 42 43 44 45 46 47 48 49 50
108
NZUS93 KARX 131010
HRRWXR

CURRENT HOURLY OBSERVATIONS ACROSS
MUCH OF THE UPPER MISSISSIPPI VALLEY
NATIONAL WEATHER SERVICE LA CROSSE WI
400 AM CST SAT FEB 13 2016


...SOUTHEAST MINNESOTA...


CITY           SKY/WX    TMP DP  RH WIND       PRES   REMARKS
ROCHESTER      CLOUDY    -9 -15  75 NW8       30.57S WCI -25
ROCHESTER/MAYO FAIR      -3 -10  72 W8        30.59S WCI -18
WINONA         PTCLDY     1 -11  55 N5        30.64S WCI  -8
AUSTIN         CLOUDY    -6 -11  77 NW6       30.58F WCI -18
ALBERT LEA     CLOUDY    -8 -11  84 CALM      30.58F
DODGE CENTER   CLOUDY    -8 -15  71 NW8       30.57S WCI -23
PRESTON        CLOUDY    -7 -15  68 NW8       30.57S WCI -23
OWATONNA       CLOUDY    -8 -15  71 CALM      30.59F
FARIBAULT      CLOUDY    -8 -15  71 NW3       30.62R
$$

...ELSEWHERE IN MINNESOTA...


CITY           SKY/WX    TMP DP  RH WIND       PRES   REMARKS
MINNEAPOLIS    PTCLDY    -5 -13  68 NW7       30.64F WCI -19
INTNL FALLS    CLOUDY   -22 -27  77 CALM      30.55F
DULUTH         CLOUDY   -13 -21  67 NW14      30.50F WCI -35
RED WING       PTCLDY    -6 -17  59 W2        30.63S
REDWOOD FALLS  CLOUDY    -6 -10  83 NW5       30.62F WCI -17
MANKATO        CLOUDY    -6 -15  65 NW5       30.61F WCI -17
WORTHINGTON    CLOUDY    -6 -11  77 N5        30.56F WCI -17
FAIRMONT       CLOUDY    -4  -9  77 NW8       30.59S WCI -19
$$

...SOUTHWEST WISCONSIN...


CITY           SKY/WX    TMP DP  RH WIND       PRES   REMARKS
LA CROSSE      PTCLDY    -2 -15  54 CALM      30.63R
PRAIRIE DU CHI CLOUDY     0 -13  55 NW5       30.62S WCI -10
BOSCOBEL       CLOUDY    -6 -13  71 CALM      30.62R
LONE ROCK      CLOUDY    -3 -15  56 W5        30.60R WCI -13
PLATTEVILLE    PTCLDY    -1 -10  65 NW6       30.56S WCI -13
FORT MC COY    PTCLDY    -4 -15  59 NW3       30.60R
CAMP DOUGLAS   PTCLDY    -8 -17  63 W8        30.56S WCI -24
VIROQUA        FAIR      -7 -17  61 NW7       30.53S WCI -22
WIS DELLS      CLOUDY    -3 -17  49 NW6       30.54S WCI -15
$$

...ELSEWHERE IN WISCONSIN...


CITY           SKY/WX    TMP DP  RH WIND       PRES   REMARKS
MILWAUKEE      CLEAR      2 -13  49 NW12      30.51R WCI -15
MADISON        CLEAR     -1 -15  51 NW7       30.54S WCI -14
GREEN BAY      PTCLDY    -3 -13  62 NW12      30.50R WCI -21
EAU CLAIRE     PTCLDY    -6 -18  56 CALM      30.60R
BLACK RVR FLS  FAIR      -9 -19  60 CALM      30.60R
MEDFORD        CLOUDY    -9 -17  68 N9        30.46S WCI -26
WAUSAU         CLOUDY    -5 -14  65 NW8       30.47S WCI -20
WIS RAPIDS     CLOUDY    -5 -17  56 NW9       30.54R WCI -22
MARSHFIELD     CLOUDY    -7 -19  56 NW13      30.49R WCI -27
RICE LAKE      CLOUDY    -9 -18  63 CALM      30.59F
$$

...NORTHEAST IOWA...


CITY           SKY/WX    TMP DP  RH WIND       PRES   REMARKS
WATERLOO       CLOUDY    -4 -11  72 W7        30.62S WCI -18
DUBUQUE        CLOUDY     1 -10  60 N10       30.56S WCI -15
DECORAH        PTCLDY    -6 -15  65 NW7       30.57S WCI -20
MASON CITY     CLOUDY    -7 -12  79 N9        30.59F WCI -24
CHARLES CITY   CLOUDY    -4 -15  59 N9        30.60S WCI -20
OELWEIN        CLOUDY    -4 -13  65 NW10      30.59S WCI -21
$$

...ELSEWHERE IN IOWA...


CITY           SKY/WX    TMP DP  RH WIND       PRES   REMARKS
DES MOINES     CLOUDY     3  -5  69 N6        30.63F WCI  -8
IOWA CITY      CLOUDY     4  -6  63 NW5       30.65R WCI  -5
FORT DODGE     CLOUDY    -4 -11  71 N3        30.61F
MARSHALLTOWN   CLOUDY    -3  -8  79 W5        30.62S WCI -13
CEDAR RAPIDS   CLOUDY     2  -6  69 NW7       30.61R WCI -11
$$

...NORTHERN ILLINOIS...


CITY           SKY/WX    TMP DP  RH WIND       PRES   REMARKS
CHICAGO-OHARE  CLEAR      4 -10  52 NW13      30.53R WCI -13
CHICAGO-MIDWAY PTCLDY     6 -11  45 NW14      30.54R WCI -11
MOLINE         PTCLDY     6  -7  54 NW10      30.61S WCI  -9
ROCKFORD       PTCLDY     3 -11  52 NW8       30.58S WCI -10
PEORIA         CLEAR      7  -7  52 N6        30.60R WCI  -3
$$

NOTE: "FAIR" INDICATES FEW OR NO CLOUDS BELOW 12,000 FEET WITH NO
SIGNIFICANT WEATHER AND/OR OBSTRUCTIONS TO VISIBILITY. WIND
SPEEDS ARE IN MILES-PER-HOUR.




USA.gov is the U.S. government's official web portal to all federal, state and local government web resources and services.